Milford, UT

6:19 AM MDT on June 27, 2017 (GMT -0600)
Milford Municipal

Weather History for KMLF - January, 2013

Change the Weather History Date:

Sunday, January 27, 2013

  Actual Average Record
Temperature  
Mean Temperature 38 °F -  
Max Temperature 48 °F 41 °F 64 °F (2003)
Min Temperature 27 °F 19 °F -2 °F (2007)
Degree Days  
Heating Degree Days 27    
Moisture  
Dew Point 32 °F    
Average Humidity 84    
Maximum Humidity 100    
Minimum Humidity 50    
Precipitation  
Precipitation 0.01 in - - ()
Sea Level Pressure  
Sea Level Pressure 29.81 in    
Wind  
Wind Speed 13 mph (SW)    
Max Wind Speed 28 mph    
Max Gust Speed 44 mph    
Visibility 8 miles    
Events Rain , Snow    
Averages and records for this station are not official NWS values.
T = Trace of Precipitation, MM = Missing Value Source: NWS Daily Summary

Daily Weather History Graph

Daily Weather History Graph

Search for Another Location

Airport or City:

Trip Planner

Search our weather history database for the weather conditions in past years. The results will help you decide how hot, cold, wet, or windy it might be!

Date:

Astronomy

Jan. 27, 2013 Rise Set
Actual Time 7:41 AM MST 5:49 PM MST
Civil Twilight 7:12 AM MST 6:17 PM MST
Nautical Twilight 6:40 AM MST 6:49 PM MST
Astronomical Twilight 6:09 AM MST 7:20 PM MST
Moon 6:45 PM MST 7:37 AM MST
Length of Visible Light 11h 04m
Length of Day
10h 07m
Full, 100% of the Moon is Illuminated
Jan 27
Full
Feb 3
Last Quarter
Feb 10
New
Feb 17
First Quarter
Feb 25
Full

Hourly Weather History & Observations

Time (MST) Temp. Windchill Dew Point Humidity Pressure Visibility Wind Dir Wind Speed Gust Speed Precip Events Conditions
12:11 AM 35.6 °F 27.1 °F 33.8 °F 93% 29.88 in 10.0 mi SSW 12.7 mph - N/A   Overcast
12:52 AM 35.1 °F 26.4 °F 34.0 °F 96% 29.88 in 10.0 mi SSW 12.7 mph - N/A   Overcast
1:33 AM 35.6 °F 27.1 °F 33.8 °F 93% 29.86 in 10.0 mi SW 12.7 mph - N/A   Scattered Clouds
1:52 AM 35.1 °F 25.5 °F 33.1 °F 92% 29.86 in 10.0 mi SW 15.0 mph - N/A   Clear
2:52 AM 36.0 °F 28.5 °F 34.0 °F 93% 29.87 in 10.0 mi SW 10.4 mph - N/A   Overcast
3:40 AM 35.6 °F 28.6 °F 33.8 °F 93% 29.86 in 10.0 mi South 9.2 mph - 0.00 in   Overcast
3:52 AM 36.0 °F 27.5 °F 34.0 °F 93% 29.86 in 10.0 mi SSW 12.7 mph - 0.00 in Rain Light Rain
4:52 AM 34.0 °F 25.5 °F 33.1 °F 96% 29.85 in 10.0 mi SW 11.5 mph - 0.01 in   Overcast
5:05 AM 35.6 °F 28.0 °F 33.8 °F 93% 29.83 in 10.0 mi SW 10.4 mph - N/A   Scattered Clouds
5:52 AM 36.0 °F 28.5 °F 34.0 °F 93% 29.82 in 10.0 mi SSW 10.4 mph - N/A   Mostly Cloudy
6:05 AM 35.6 °F 28.0 °F 35.6 °F 100% 29.80 in 10.0 mi SW 10.4 mph - 0.00 in Rain Light Rain
6:33 AM 35.6 °F 29.2 °F 33.8 °F 93% 29.80 in 10.0 mi WSW 8.1 mph - 0.00 in   Overcast
6:52 AM 36.0 °F 29.0 °F 35.1 °F 97% 29.80 in 10.0 mi West 9.2 mph - 0.00 in   Overcast
7:52 AM 36.0 °F 31.1 °F 34.0 °F 93% 29.81 in 10.0 mi SW 5.8 mph - 0.00 in   Overcast
8:10 AM 35.6 °F 28.0 °F 33.8 °F 93% 29.80 in 10.0 mi West 10.4 mph - N/A   Overcast
8:52 AM 37.0 °F 28.1 °F 34.0 °F 89% 29.82 in 10.0 mi SW 15.0 mph - N/A   Overcast
9:21 AM 39.2 °F 33.0 °F 35.6 °F 87% 29.80 in 10.0 mi South 9.2 mph - N/A   Scattered Clouds
9:52 AM 39.9 °F 33.9 °F 36.0 °F 86% 29.78 in 10.0 mi SSW 9.2 mph - N/A   Mostly Cloudy
10:52 AM 43.0 °F 34.0 °F 36.0 °F 76% 29.76 in 10.0 mi SSW 21.9 mph 29.9 mph N/A   Mostly Cloudy
11:52 AM 45.0 °F 36.6 °F 36.0 °F 71% 29.75 in 10.0 mi South 21.9 mph 31.1 mph N/A   Partly Cloudy
12:52 PM 46.9 °F - 36.0 °F 66% 29.72 in 10.0 mi SSW 25.3 mph 32.2 mph N/A   Mostly Cloudy
1:52 PM 48.0 °F - 35.1 °F 61% 29.69 in 10.0 mi SSW 27.6 mph 42.6 mph N/A   Scattered Clouds
2:52 PM 41.0 °F 30.7 °F 35.1 °F 79% 29.72 in 7.0 mi SW 25.3 mph 43.7 mph 0.00 in Rain Light Rain
3:52 PM 45.0 °F 36.4 °F 33.1 °F 63% 29.70 in 10.0 mi SW 23.0 mph 31.1 mph 0.01 in   Clear
4:52 PM 42.1 °F 33.6 °F 33.1 °F 70% 29.74 in 10.0 mi SSW 18.4 mph - N/A   Scattered Clouds
5:52 PM 39.0 °F 32.3 °F 32.0 °F 76% 29.74 in 10.0 mi South 10.4 mph - N/A   Mostly Cloudy
6:41 PM 37.4 °F 34.9 °F 32.0 °F 81% 29.78 in 10.0 mi South 3.5 mph - 0.00 in Rain Light Rain
6:50 PM 37.4 °F 34.9 °F 32.0 °F 81% 29.78 in 10.0 mi SSW 3.5 mph - 0.00 in   Overcast
6:52 PM 37.9 °F - 32.0 °F 79% 29.78 in 10.0 mi Calm Calm - 0.00 in Rain Light Rain
7:52 PM 32.0 °F 20.1 °F 27.0 °F 82% 29.84 in 10.0 mi North 19.6 mph - 0.00 in   Overcast
8:41 PM 30.2 °F 18.5 °F 26.6 °F 86% 29.84 in 7.0 mi North 17.3 mph - 0.00 in Snow Light Snow
8:52 PM 30.0 °F 18.3 °F 26.1 °F 85% 29.86 in 9.0 mi North 17.3 mph - 0.00 in Snow Light Snow
9:52 PM 28.9 °F 17.3 °F 26.1 °F 89% 29.86 in 1.8 mi North 16.1 mph - 0.00 in Snow Light Snow
10:04 PM 28.4 °F 16.6 °F 24.8 °F 86% 29.85 in 1.2 mi NNE 16.1 mph 21.9 mph 0.00 in Snow Light Snow
10:15 PM 28.4 °F 16.2 °F 24.8 °F 86% 29.85 in 0.8 mi NNE 17.3 mph 24.2 mph 0.00 in Snow Light Snow
10:25 PM 28.4 °F 17.5 °F 26.6 °F 93% 29.86 in 1.0 mi NNE 13.8 mph - 0.01 in Snow Light Snow
10:43 PM 28.4 °F 19.1 °F 26.6 °F 93% 29.86 in 1.5 mi NNE 10.4 mph - 0.01 in Snow Light Snow
10:58 PM 28.4 °F 18.0 °F 26.6 °F 93% 29.86 in 1.2 mi NNE 12.7 mph - 0.00 in Snow Light Snow
11:04 PM 28.4 °F 18.0 °F 24.8 °F 86% 29.85 in 2.0 mi NNE 12.7 mph - 0.00 in Snow Light Snow
11:12 PM 28.4 °F 18.5 °F 24.8 °F 86% 29.84 in 4.0 mi NNE 11.5 mph - 0.00 in Snow Light Snow
11:30 PM 28.4 °F 18.5 °F 24.8 °F 86% 29.84 in 4.0 mi North 11.5 mph - 0.00 in Snow Light Snow
11:52 PM 27.0 °F 15.6 °F 25.0 °F 92% 29.84 in 9.0 mi North 13.8 mph - 0.00 in Snow Light Snow